Regional Weather Roundup
Issued by NWS Jackson, KY

Home | Current Version | Previous Version | Text Only | Print | Product List | Glossary On
Versions: 1 2 3 4 5 6 7 8 9 10 11 12 13 14 15 16 17 18 19 20 21 22 23 24 25 26 27 28 29 30 31 32 33 34 35 36 37 38 39 40 41 42 43 44 45 46 47 48 49 50
174
ASUS43 KJKL 061110
RWRJKL

EAST KENTUCKY HOURLY WEATHER ROUNDUP
NATIONAL WEATHER SERVICE JACKSON KY
600 AM EST SAT FEB 06 2016

NOTE: "FAIR" INDICATES FEW OR NO CLOUDS BELOW 12,000 FEET WITH
NO SIGNIFICANT WEATHER AND/OR OBSTRUCTIONS TO VISIBILITY.

* THESE REPORTS ARE NOT UNDER NWS QUALITY CONTROL AND MAY NOT
  REPORT WEATHER SUCH AS PRECIPITATION AND FOG.

KYZ079-080-083-085-087-088-110-112-115-119-120-061200
...EASTERN KENTUCKY...

CITY           SKY/WX    TMP DP  RH WIND       PRES   REMARKS
JACKSON        PTCLDY    29  15  56 SW3       30.35R
LONDON         PTCLDY    25  19  78 CALM      30.36S
SOMERSET*      CLEAR     27  19  74 CALM      30.38S
MONTICELLO*    CLEAR     22  18  85 W12       30.38S WCI  10
WILLIAMSBURG*  MOSUNNY   25  23  93 CALM      30.37S
MIDDLESBORO*   PTCLDY    24  23  94 CALM      30.39S
HARLAN APT*      N/A     27  23  86 CALM      30.37S
HAZARD APT*    SUNNY    N/A N/A N/A CALM      30.36S
BLACK MTN*       N/A     25  14  63 SW5         N/A  WCI  19
BIG SANDY*     CLOUDY    31  18  60 S3        30.36S
MOREHEAD APT*  MOSUNNY   28  16  59 SE5       30.36S WCI  23
$$

KYZ035-036-041-042-044-050-067-078-099-061200
...CENTRAL KENTUCKY...

CITY           SKY/WX    TMP DP  RH WIND       PRES   REMARKS
MT STERLING*   CLEAR     32  18  55 SW7       30.35F WCI  26
DANVILLE*      CLEAR     30  18  59 SW5       30.36S WCI  25
RICHMOND*      CLEAR     32  16  51 S9        30.34S WCI  24
LEXINGTON      CLEAR     28  18  66 S7        30.34S WCI  21
FRANKFORT      CLEAR     25  18  74 CALM      30.33S
$$

KYZ091>093-OHZ055-061-077-WVZ005-015-034-035-042-061200
...SOUTHERN OHIO/WEST VIRGINIA...

CITY           SKY/WX    TMP DP  RH WIND       PRES   REMARKS
COVINGTON      PTCLDY    24  21  88 CALM      30.33S
COLUMBUS       PTCLDY    27  21  78 W3        30.32R
DAYTON         PTCLDY    23  20  88 W3        30.32S
WILMINGTON     CLEAR     24  21  88 CALM      30.31F
HUNTINGTON       N/A     28  17  63 S5        30.35S WCI  23
CHARLESTON       N/A     25  21  85 CALM      30.36R
PINEVILLE*       N/A     23  19  86 MISG      30.41R
BECKLEY          N/A     23  15  71 CALM      30.32R
$$

VAZ002-007-008-TNZ017-027-036-066-071-061200
...SOUTHWEST VIRGINIA/EAST TENNESSEE...

CITY           SKY/WX    TMP DP  RH WIND       PRES   REMARKS
BRISTOL        CLOUDY    24  18  77 CALM      30.37S
KNOXVILLE      MOCLDY    27  21  78 E5        30.38R WCI  22
OAK RIDGE      CLOUDY    27  22  81 CALM      30.39F
CROSSVILLE     CLEAR     25  17  72 CALM      30.34S
NASHVILLE      PTCLDY    29  22  75 CALM      30.37S
$$

...KEY TO REMARKS...
VSB - VISIBILITY IN MILES
WCI - WIND CHILL INDEX
HX  - HEAT INDEX

$$




USA.gov is the U.S. government's official web portal to all federal, state and local government web resources and services.